Bryce Canyon, UT

11:43 PM MST on December 10, 2019 (GMT -0700)
Bryce Canyon

Weather History for KBCE - October, 2019

Change the Weather History Date:

Friday, October 18, 2019

  Actual Average Record
Temperature  
Mean Temperature 40 °F -  
Max Temperature 54 °F 58 °F 71 °F (1991)
Min Temperature 25 °F 25 °F 13 °F (1970)
Degree Days  
Heating Degree Days 24    
Moisture  
Dew Point 20 °F    
Average Humidity 49    
Maximum Humidity 82    
Minimum Humidity 16    
Precipitation  
Precipitation 0.00 in - - ()
Sea Level Pressure  
Sea Level Pressure 29.83 in    
Wind  
Wind Speed 11 mph (NW)    
Max Wind Speed 18 mph    
Max Gust Speed 25 mph    
Visibility 10 miles    
Events Snow    
Averages and records for this station are not official NWS values.
T = Trace of Precipitation, MM = Missing Value Source: NWS Daily Summary

Daily Weather History Graph

Daily Weather History Graph

Search for Another Location

Airport or City:

Astronomy

Oct. 18, 2019 Rise Set
Actual Time 7:39 AM MDT 6:47 PM MDT
Civil Twilight 7:13 AM MDT 7:13 PM MDT
Nautical Twilight 6:42 AM MDT 7:44 PM MDT
Astronomical Twilight 6:12 AM MDT 8:14 PM MDT
Moon 10:11 PM MDT (10/18) 12:12 PM MDT (10/18)
Length of Visible Light 12h 00m
Length of Day
11h 07m
Waning Gibbous, 78% of the Moon is Illuminated
Oct 18
Waning Gibbous
Oct 21
Last Quarter
Oct 27
New
Nov 4
First Quarter
Nov 12
Full

Hourly Weather History & Observations

Time (MDT) Temp. Windchill Dew Point Humidity Pressure Visibility Wind Dir Wind Speed Gust Speed Precip Events Conditions
12:53 AM 37.0 °F 31.6 °F 21.9 °F 54% 29.58 in 10.0 mi SW 6.9 mph - N/A   Partly Cloudy
1:53 AM 44.1 °F 37.4 °F 26.1 °F 49% 29.57 in 10.0 mi West 13.8 mph - N/A   Overcast
2:53 AM 39.9 °F 31.8 °F 28.9 °F 65% 29.62 in 10.0 mi NNE 15.0 mph - N/A   Mostly Cloudy
3:53 AM 37.0 °F 27.7 °F 28.9 °F 73% 29.65 in 9.0 mi NW 16.1 mph - 0.00 in Snow Light Snow
4:38 AM 37.0 °F 30.4 °F 28.0 °F 70% 29.93 in 9.0 mi North 9.2 mph - 0.00 in   Overcast
4:53 AM 36.0 °F 28.5 °F 28.0 °F 73% 29.68 in 10.0 mi NW 10.4 mph - 0.00 in   Overcast
5:21 AM 36.0 °F 28.0 °F 28.0 °F 73% 29.94 in 10.0 mi NW 11.5 mph - N/A   Mostly Cloudy
5:45 AM 35.1 °F 27.9 °F 27.0 °F 72% 29.94 in 10.0 mi NW 9.2 mph - N/A   Mostly Cloudy
5:53 AM 35.1 °F 27.9 °F 27.0 °F 72% 29.68 in 10.0 mi NW 9.2 mph - N/A   Partly Cloudy
6:53 AM 33.1 °F 23.0 °F 26.1 °F 75% 29.71 in 10.0 mi NW 15.0 mph - N/A   Partly Cloudy
7:53 AM 32.0 °F 20.5 °F 27.0 °F 82% 29.79 in 10.0 mi WNW 18.4 mph 25.3 mph N/A   Clear
8:53 AM 36.0 °F 28.5 °F 26.1 °F 67% 29.82 in 10.0 mi NW 10.4 mph - N/A   Clear
9:53 AM 41.0 °F 33.1 °F 23.0 °F 49% 29.84 in 10.0 mi WNW 15.0 mph - N/A   Clear
10:42 AM 43.0 °F 35.4 °F 18.0 °F 37% 30.03 in 10.0 mi NNE 16.1 mph - N/A   Clear
10:49 AM 42.8 °F 34.8 °F 17.6 °F 36% 30.04 in 10.0 mi NNE 17.3 mph 23.0 mph N/A   Clear
10:53 AM 44.1 °F 36.2 °F 17.1 °F 34% 29.80 in 10.0 mi NE 18.4 mph 23.0 mph N/A   Clear
11:53 AM 46.9 °F - 15.1 °F 28% 29.81 in 10.0 mi NE 10.4 mph - N/A   Clear
12:53 PM 48.9 °F - 12.9 °F 24% 29.84 in 10.0 mi North - - N/A   Clear
1:53 PM 51.1 °F - 12.0 °F 21% 29.79 in 10.0 mi WNW 8.1 mph - N/A   Clear
2:53 PM 53.1 °F - 17.1 °F 24% 29.78 in 10.0 mi WNW 11.5 mph - N/A   Clear
3:53 PM 53.1 °F - 16.0 °F 23% 29.81 in 10.0 mi West 16.1 mph 23.0 mph N/A   Clear
4:53 PM 52.0 °F - 7.0 °F 16% 29.83 in 10.0 mi WNW 12.7 mph - N/A   Clear
6:53 PM 45.0 °F 39.3 °F 5.0 °F 19% 29.89 in 10.0 mi WNW 11.5 mph - N/A   Clear
7:53 PM 42.1 °F 36.6 °F 10.9 °F 28% 29.92 in 10.0 mi WNW 9.2 mph - N/A   Clear
8:53 PM 35.1 °F 28.6 °F 15.1 °F 44% 29.96 in 10.0 mi West 8.1 mph - N/A   Clear
9:53 PM 32.0 °F - 14.0 °F 48% 29.96 in 10.0 mi Calm Calm - N/A   Clear
10:53 PM 28.9 °F - 12.9 °F 51% 29.97 in 10.0 mi Calm Calm - N/A   Clear
11:53 PM 25.0 °F 15.5 °F 10.9 °F 55% 29.97 in 10.0 mi West 9.2 mph - N/A   Clear